User: anonymous   Login
Location: Peebles
(55.6412°N, 3.1714°W)
Time: 03:40:31
(UTC+01:00)
Language:

FLOCK 4V 1 - Orbit

View from above orbital plane
View from above orbital plane
View from above satellite
View from above satellite

Ground track
Ground track

The orbit data is extracted from the following two-line orbital elements,

1 46313U 20061AT  22181.46490056  .00003923  00000-0  21725-3 0  9991
2 46313  97.4491 252.0199 0004642 126.9595 233.2062 15.14389419100457
Epoch (UTC): 30 June 2022 11:09:27
Eccentricity: 0.0004642
inclination: 97.4491°
perigee height: 519 km
apogee height: 526 km
right ascension of ascending node: 252.0199°
argument of perigee: 126.9595°
revolutions per day: 15.14389419
mean anomaly at epoch: 233.2062°
orbit number at epoch: 10045

The dashed part of the orbit path shows where the satellite is in the earth's shadow,  

DLR